Regional Weather Roundup
Issued by NWS

Home | Current Version | Previous Version | Graphics & Text | Print | Product List | Glossary On
Versions: 1 2 3 4 5 6 7 8 9 10 11 12 13 14 15 16 17 18 19 20 21 22 23 24 25 26 27 28 29 30 31 32 33 34 35 36 37 38 39 40 41 42 43 44 45 46 47 48 49 50
000
ASUS43 KDMX 062007
RWRIA

WEATHER ROUNDUP FOR IOWA
NATIONAL WEATHER SERVICE DES MOINES IA
200 PM CST FRI MAR 06 2015

NOTE: "FAIR" INDICATES FEW OR NO CLOUDS BELOW 12,000 FEET WITH NO
SIGNIFICANT WEATHER AND/OR OBSTRUCTIONS TO VISIBILITY.

* - THESE STATIONS ARE NOT NWS STATIONS...THUS NOT UNDER NWS
QUALITY CONTROL.  THEY ALSO DO NOT REPORT WEATHER SUCH
AS PRECIPITATION OR FOG.

IAZ001>003-012>014-020>022-031>034-043>046-062100-
   NORTHWEST IOWA

CITY           SKY/WX    TMP DP  RH WIND       PRES   REMARKS
CARROLL *      SUNNY     52  25  35 SW15      30.11F
CHEROKEE *     MOSUNNY   54  25  32 W9        30.09F
DENISON *      SUNNY     52  21  30 SW10G17   30.10F
LE MARS *      SUNNY     55  21  26 NW17G24   30.10F
ORANGE CITY *  SUNNY     54  19  26 W16G23    30.09F
SHELDON *      SUNNY     46  25  42 NW14G22   30.08F
SIOUX CITY     PTSUNNY   60  18  19 NW22G29   30.08
SPENCER        SUNNY     49  23  36 NW17      30.09
STORM LAKE *   SUNNY     50  25  37 W14       30.09F
$$

IAZ055>058-069>071-079>083-090>094-062100-
   SOUTHWEST IOWA

CITY           SKY/WX    TMP DP  RH WIND       PRES   REMARKS
ATLANTIC *     SUNNY     54  21  28 SW17      30.14F
AUDUBON *      SUNNY     52  19  28 SW13      30.14F
CLARINDA *     SUNNY     59  19  21 W13G21    30.19F
COUNCIL BLFS * SUNNY     57  21  24 SW15G23   30.13F
CRESTON *      SUNNY     54  19  26 W21G26    30.16F
HARLAN  *      SUNNY     52  23  32 SW15      30.17F
LAMONI         SUNNY     53  24  32 W14       30.18
RED OAK *      SUNNY     59  21  23 W16G23    30.16F
SHENANDOAH *   SUNNY     59  18  20 W17       30.17F
$$

IAZ047>049-059>061-072>074-084-062100-
   CENTRAL IOWA

CITY           SKY/WX    TMP DP  RH WIND       PRES   REMARKS
AMES           SUNNY     44  26  49 SW13      30.13
ANKENY *       SUNNY     48  21  34 SW10      30.15F
CHARITON *     SUNNY     52  21  30 W16       30.17F
DES MOINES     MOSUNNY   52  21  29 SW13      30.15
GRINNELL*      SUNNY     41  25  52 SW13      30.16F
KNOXVILLE *    SUNNY     50  23  34 W13G18    30.15F
MARSHALLTOWN   SUNNY     37  25  61 SW12      30.13  WCI  29
PELLA *        SUNNY     48  27  43 W12       30.18F
PERRY *          N/A     50  27  40 W15       30.13F
$$

IAZ004>006-015-016-023>025-035-036-062100-
   NORTH CENTRAL IOWA

CITY           SKY/WX    TMP DP  RH WIND       PRES   REMARKS
ALGONA *       SUNNY     48 N/A N/A W18       30.08F
CLARION *      SUNNY     43  32  65 SW15      30.09F
ESTHERVILLE    SUNNY     45  28  51 NW18      30.07
FORT DODGE *   SUNNY     45  28  53 SW10      30.11F
MASON CITY     SUNNY     38  26  62 SW12      30.08  WCI  30
FOREST CITY *  SUNNY     43  27  52 SW10      30.06F
IOWA FALLS *     N/A     39  28  65 SW12      30.11F WCI  32
$$

IAZ007>011-017>019-026>030-037>042-050>054-066-062100-
   NORTHEAST IOWA

CITY           SKY/WX    TMP DP  RH WIND       PRES   REMARKS
CEDAR RAPIDS   SUNNY     34  22  61 SW13      30.15  WCI  25
CHARLES CITY * SUNNY     32  23  69 SW13      30.09F WCI  22
CLINTON *      SUNNY     30  19  64 SW14      30.22F WCI  20
DECORAH *      SUNNY     30  19  64 SW9G18    30.07F WCI  22
DUBUQUE        SUNNY     27  17  66 SW14      30.14  WCI  16
MONTICELLO *   SUNNY     32  21  64 SW10      30.16F WCI  24
OELWEIN *      SUNNY     32  23  69 SW16      30.12F WCI  21
WATERLOO       SUNNY     33  24  69 SW14      30.13  WCI  23
$$

IAZ064-065-067-068-078-062100-
   EAST CENTRAL IOWA

CITY           SKY/WX    TMP DP  RH WIND       PRES   REMARKS
DAVENPORT      SUNNY     32  18  56 SW14      30.20  WCI  22
IOWA CITY      SUNNY     36  22  56 SW14      30.20  WCI  27
MT. PLEASANT * SUNNY     41  23  48 SW14      30.20F
MUSCATINE *    SUNNY     37  21  52 SW12      30.21F WCI  30
QUAD CITIES    SUNNY     33  20  58 SW15      30.20  WCI  23
$$

IAZ062-063-075>077-085>089-095>099-062100-
   SOUTHEAST IOWA

CITY           SKY/WX    TMP DP  RH WIND       PRES   REMARKS
BURLINGTON     SUNNY     38  24  57 SW14      30.20  WCI  30
FAIRFIELD *    SUNNY     43  25  49 SW10      30.18F
FORT MADISON * SUNNY     39  25  56 SW12G18   30.21F WCI  32
KEOKUK *       SUNNY     43  27  52 SW10G18   30.20F
OSKALOOSA *      N/A     45  25  45 W10       30.17F
CENTERVILLE *  SUNNY     50  25  37 W13       30.20F
OTTUMWA        SUNNY     46  22  38 W10       30.17
WASHINGTON *   SUNNY     39  25  56 SW12G20   30.18F WCI  32
$$

ABBREVIATIONS USED IN REMARKS
   TC - TEMPERATURES IN CELSIUS
  WCI - WIND CHILL INDEX
   HX - HEAT INDEX
  VSB - VISIBILITY
$$




USA.gov is the U.S. government's official web portal to all federal, state and local government web resources and services.